• In Uzbekistan
  • List of Countries
  • For 7 days
  • Water Temperature
  • Satellite Maps
  • Weather Map
  • Weather Widgets
  • user-avatar
    Login

    Hourly Weather Maceio

    Today, 20 September, Wednesday

    Time Temperature Precipitation Wind Pressure Humidity
    00:00 +22°C° 0.3 mm 6 mps 763 mmHg 95%
    01:00 +22°C° 0.3 mm 5 mps 762 mmHg 95%
    02:00 +22°C° 0.2 mm 5 mps 762 mmHg 95%
    03:00 +22°C° 0.2 mm 5 mps 762 mmHg 95%
    04:00 +22°C° 0.2 mm 5 mps 762 mmHg 95%
    05:00 +22°C° 0.2 mm 5 mps 762 mmHg 94%
    06:00 +22°C° 0.2 mm 4 mps 762 mmHg 94%
    07:00 +22°C° 0.2 mm 4 mps 763 mmHg 93%
    08:00 +25°C° 0.1 mm 4 mps 763 mmHg 88%
    09:00 +26°C° 0.1 mm 4 mps 763 mmHg 82%
    10:00 +28°C° 0.1 mm 4 mps 764 mmHg 76%
    11:00 +28°C° 0 mm 4 mps 763 mmHg 72%
    12:00 +29°C° 0 mm 5 mps 763 mmHg 68%
    13:00 +30°C° 0 mm 5 mps 763 mmHg 64%
    14:00 +29°C° 0 mm 5 mps 762 mmHg 66%
    15:00 +29°C° 0 mm 5 mps 762 mmHg 68%
    16:00 +28°C° 0 mm 5 mps 761 mmHg 70%
    17:00 +27°C° 0.1 mm 5 mps 762 mmHg 77%
    18:00 +25°C° 0.1 mm 5 mps 762 mmHg 85%
    19:00 +23°C° 0.1 mm 5 mps 762 mmHg 92%
    20:00 +23°C° 0.2 mm 5 mps 763 mmHg 92%
    21:00 +23°C° 0.2 mm 5 mps 763 mmHg 92%
    22:00 +23°C° 0.2 mm 6 mps 763 mmHg 93%
    23:00 +23°C° 0.1 mm 6 mps 763 mmHg 93%

    Tomorrow, 21 September, Thursday

    Time Temperature Precipitation Wind Pressure Humidity
    00:00 +22°C° 0.1 mm 6 mps 763 mmHg 94%
    01:00 +22°C° 0.1 mm 5 mps 763 mmHg 95%
    02:00 +22°C° 0.2 mm 5 mps 762 mmHg 95%
    03:00 +22°C° 0.2 mm 5 mps 762 mmHg 95%
    04:00 +22°C° 0.2 mm 5 mps 761 mmHg 95%
    05:00 +22°C° 0.2 mm 5 mps 762 mmHg 94%
    06:00 +23°C° 0.2 mm 5 mps 762 mmHg 93%
    07:00 +23°C° 0.2 mm 5 mps 762 mmHg 93%
    08:00 +25°C° 0.2 mm 5 mps 763 mmHg 87%
    09:00 +27°C° 0.2 mm 6 mps 763 mmHg 82%
    10:00 +28°C° 0.2 mm 6 mps 764 mmHg 77%
    11:00 +28°C° 0.3 mm 6 mps 763 mmHg 75%
    12:00 +29°C° 0.3 mm 6 mps 763 mmHg 73%
    13:00 +29°C° 0.3 mm 6 mps 763 mmHg 72%
    14:00 +29°C° 0.3 mm 6 mps 762 mmHg 74%
    15:00 +28°C° 0.3 mm 6 mps 762 mmHg 76%
    16:00 +28°C° 0.3 mm 6 mps 761 mmHg 78%
    17:00 +26°C° 0.2 mm 5 mps 761 mmHg 83%
    18:00 +25°C° 0.2 mm 5 mps 762 mmHg 88%
    19:00 +23°C° 0.2 mm 5 mps 762 mmHg 92%
    20:00 +23°C° 0.2 mm 5 mps 762 mmHg 93%
    21:00 +23°C° 0.2 mm 5 mps 763 mmHg 93%
    22:00 +23°C° 0.2 mm 5 mps 763 mmHg 94%
    23:00 +23°C° 0.3 mm 5 mps 763 mmHg 94%

    Day after tomorrow, 22 September, Friday

    Time Temperature Precipitation Wind Pressure Humidity
    00:00 +22°C° 0.3 mm 5 mps 763 mmHg 95%
    01:00 +22°C° 0.3 mm 5 mps 762 mmHg 95%
    02:00 +22°C° 0.3 mm 5 mps 762 mmHg 95%
    03:00 +22°C° 0.3 mm 5 mps 761 mmHg 95%
    04:00 +22°C° 0.3 mm 5 mps 761 mmHg 96%
    05:00 +22°C° 0.3 mm 5 mps 761 mmHg 95%
    06:00 +22°C° 0.3 mm 5 mps 762 mmHg 95%
    07:00 +23°C° 0.3 mm 5 mps 762 mmHg 95%
    08:00 +23°C° 0.3 mm 5 mps 762 mmHg 92%
    09:00 +24°C° 0.3 mm 6 mps 763 mmHg 89%
    10:00 +26°C° 0.3 mm 6 mps 763 mmHg 86%
    11:00 +26°C° 0.2 mm 6 mps 763 mmHg 85%
    12:00 +26°C° 0.2 mm 5 mps 763 mmHg 84%
    13:00 +27°C° 0.2 mm 5 mps 762 mmHg 84%
    14:00 +27°C° 0.2 mm 6 mps 762 mmHg 82%
    15:00 +27°C° 0.2 mm 6 mps 761 mmHg 81%
    16:00 +27°C° 0.2 mm 6 mps 761 mmHg 80%
    17:00 +26°C° 0.3 mm 6 mps 761 mmHg 84%
    18:00 +24°C° 0.3 mm 6 mps 762 mmHg 89%
    19:00 +23°C° 0.3 mm 5 mps 762 mmHg 93%
    20:00 +22°C° 0.2 mm 5 mps 762 mmHg 94%
    21:00 +22°C° 0.2 mm 5 mps 763 mmHg 95%
    22:00 +22°C° 0.2 mm 5 mps 763 mmHg 96%
    23:00 +22°C° 0.2 mm 5 mps 763 mmHg 95%

    23 September, Saturday

    Time Temperature Precipitation Wind Pressure Humidity
    00:00 +22°C° 0.2 mm 5 mps 762 mmHg 95%
    01:00 +22°C° 0.2 mm 4 mps 762 mmHg 95%
    02:00 +22°C° 0.2 mm 4 mps 762 mmHg 95%
    03:00 +22°C° 0.2 mm 4 mps 761 mmHg 95%
    04:00 +22°C° 0.2 mm 4 mps 761 mmHg 96%
    05:00 +22°C° 0.4 mm 4 mps 761 mmHg 95%
    06:00 +22°C° 0.4 mm 4 mps 761 mmHg 95%
    07:00 +23°C° 0.4 mm 4 mps 762 mmHg 95%
    08:00 +23°C° 0.9 mm 5 mps 762 mmHg 93%
    09:00 +25°C° 0.9 mm 5 mps 763 mmHg 91%
    10:00 +26°C° 0.9 mm 5 mps 763 mmHg 89%
    11:00 +25°C° 0.7 mm 5 mps 763 mmHg 90%
    12:00 +25°C° 0.7 mm 5 mps 762 mmHg 91%
    13:00 +25°C° 0.7 mm 5 mps 762 mmHg 92%
    14:00 +25°C° 0.3 mm 5 mps 762 mmHg 91%
    15:00 +25°C° 0.3 mm 5 mps 761 mmHg 91%
    16:00 +26°C° 0.3 mm 5 mps 761 mmHg 90%
    17:00 +25°C° 0.3 mm 5 mps 761 mmHg 92%
    18:00 +23°C° 0.3 mm 5 mps 761 mmHg 93%
    19:00 +22°C° 0.3 mm 5 mps 762 mmHg 94%
    20:00 +22°C° 0.2 mm 4 mps 762 mmHg 94%
    21:00 +22°C° 0.2 mm 4 mps 762 mmHg 94%
    22:00 +22°C° 0.2 mm 4 mps 762 mmHg 95%
    23:00 +22°C° 0.4 mm 4 mps 762 mmHg 95%

    24 September, Sunday

    Time Temperature Precipitation Wind Pressure Humidity
    00:00 +22°C° 0.4 mm 4 mps 761 mmHg 95%
    01:00 +22°C° 0.4 mm 4 mps 761 mmHg 95%
    02:00 +21°C° 0.3 mm 4 mps 761 mmHg 95%
    03:00 +21°C° 0.3 mm 4 mps 761 mmHg 95%
    04:00 +21°C° 0.3 mm 3 mps 760 mmHg 95%
    05:00 +22°C° 0.4 mm 3 mps 761 mmHg 94%
    06:00 +22°C° 0.4 mm 3 mps 761 mmHg 94%
    07:00 +24°C° 0.4 mm 3 mps 761 mmHg 93%
    08:00 +25°C° 0.3 mm 4 mps 762 mmHg 89%
    09:00 +26°C° 0.3 mm 4 mps 762 mmHg 85%
    10:00 +27°C° 0.3 mm 5 mps 762 mmHg 81%
    11:00 +28°C° 0.2 mm 5 mps 762 mmHg 79%
    12:00 +28°C° 0.2 mm 5 mps 761 mmHg 76%
    13:00 +29°C° 0.2 mm 6 mps 761 mmHg 74%
    14:00 +29°C° 0.1 mm 6 mps 760 mmHg 74%
    15:00 +28°C° 0.1 mm 6 mps 760 mmHg 75%
    16:00 +28°C° 0.1 mm 6 mps 760 mmHg 75%
    17:00 +26°C° 0 mm 5 mps 760 mmHg 80%
    18:00 +25°C° 0 mm 5 mps 760 mmHg 85%
    19:00 +23°C° 0 mm 4 mps 761 mmHg 90%
    20:00 +22°C° 0 mm 4 mps 761 mmHg 90%
    21:00 +22°C° 0 mm 4 mps 761 mmHg 91%
    22:00 +22°C° 0 mm 4 mps 762 mmHg 92%
    23:00 +22°C° 0.1 mm 4 mps 761 mmHg 93%

    25 September, Monday

    Time Temperature Precipitation Wind Pressure Humidity
    00:00 +22°C° 0.1 mm 4 mps 761 mmHg 94%
    01:00 +22°C° 0.1 mm 4 mps 761 mmHg 95%
    02:00 +22°C° 0.2 mm 4 mps 761 mmHg 95%
    03:00 +22°C° 0.2 mm 4 mps 761 mmHg 95%
    04:00 +22°C° 0.2 mm 4 mps 760 mmHg 96%
    05:00 +22°C° 0.3 mm 5 mps 761 mmHg 96%
    06:00 +22°C° 0.3 mm 5 mps 761 mmHg 95%
    07:00 +23°C° 0.3 mm 5 mps 762 mmHg 95%
    08:00 +25°C° 0.4 mm 5 mps 762 mmHg 92%
    09:00 +26°C° 0.4 mm 5 mps 762 mmHg 89%
    10:00 +26°C° 0.4 mm 6 mps 763 mmHg 86%
    11:00 +27°C° 0.3 mm 6 mps 762 mmHg 86%
    12:00 +27°C° 0.3 mm 6 mps 762 mmHg 85%
    13:00 +27°C° 0.3 mm 6 mps 761 mmHg 84%
    14:00 +27°C° 0.3 mm 5 mps 761 mmHg 85%
    15:00 +27°C° 0.3 mm 5 mps 761 mmHg 86%
    16:00 +27°C° 0.3 mm 5 mps 760 mmHg 87%
    17:00 +26°C° 0.1 mm 5 mps 760 mmHg 89%
    18:00 +25°C° 0.1 mm 5 mps 761 mmHg 91%
    19:00 +23°C° 0.1 mm 4 mps 761 mmHg 94%
    20:00 +23°C° 0.2 mm 4 mps 761 mmHg 94%
    21:00 +23°C° 0.2 mm 5 mps 761 mmHg 95%
    22:00 +22°C° 0.2 mm 5 mps 762 mmHg 96%
    23:00 +23°C° 0.2 mm 5 mps 761 mmHg 96%
    Show more